DELTA 1 DEB, 10871

Orbit data source: Space-Track

DELTA 1 DEB, 10871 is space debris in SSO originally from a launch on Thu, 29 Jul 1976 UTC launched from the Air Force Western Test Range (AFWTR). Debris objects in space refer to the collection of defunct objects orbiting the Earth. Examples of debris include non-operational satellites, rocket bodies, and fragments generated from explosions, collisions, or faulty payload assembly.

Loading next visibility...
Identifier
10871, 1976-077CZ
Orbit
SSO
Country
Flag of USUS
Related business
Manufacturer
Unknown
Mission
Spacecraft
Bus & Motor
Unknown
Mass
Unknown
Launch date (UTC)
1976-07-29 (50 years ago)
Launch vehicle
Unknown
Launch site
Air Force Western Test Range (AFWTR)
Object type
Payload
Rocket body
Debris
Shape & HBR
Unknown shape, 0.1 m
Radar Cross Section
Small (<0.1 m²)

Expand to show TLE details & history
Last TLE update: 13 hours ago

TLE from 13 hours ago
0 DELTA 1 DEB
1 10871U 76077CZ  26033.56843753  .00000334  00000-0  25611-2 0  9996
2 10871 101.8756  15.1918 0274669  20.7818 143.7447 12.37565166230706
Epoch: 2026-02-02T13:38Z
TLE epoch observation values (Epoch: 2026-02-02T13:38:33.002Z)
Latitude
13.33508°
Longitude
-139.36403°
Altitude
1,695.674 km
Speed
6.949 km/s
True Right ascension
13h 12m 08s
True Declination
13° 16' 01"
Sunlit
Object was in daylight at epoch
Visualization orbit readout
Latitude
Unknown
Longitude
Unknown
Altitude
Unknown
Speed
Unknown
Apparent Right ascension
Unknown
Apparent Declination
Unknown
Sunlit
N/A
Visualization observer readout
Local Sidereal Time
04:05:01
Azimuth
Unknown
Elevation
Unknown
Doppler factor
Unknown
Orbital elements
Apogee altitude
1,731.296 km
Perigee altitude
1,297.723 km
Semi-major axis
7,892.646 km
Eccentricity
0.02747
Inclination
101.8756°
RAAN
15.1918°
Arg. of periapsis
20.7818°
True anomaly
145.55557°
Mean anomaly
143.7447°
Eccentric anomaly
144.6551°
Mean motion
3.09535 °/min
Orbital period
116.3 mins
BSTAR
0.0025611
Loading maneuver chart data...
Computing Atmospheric mass density...
Loading historical data...
Loading historical data...
Loading historical data...
Loading historical data...
Loading historical data...
Loading historical data...
Loading historical data...

Documentation

Showing up to 5 results
|